| time (UTC) | temp F | wind direction | speed MPH | gust MPH | rain 1hr in | rain 24hr in | rain mn in | humidity % | barometer mb |
| 20260505001334 | 47 | 263 | 3.0 | 8.0 | 0.00 | 0.66 | 0.10 | 84 | 1008.6 |
| 20260505000312 | 47 | 224 | 3.0 | 13.0 | 0.00 | 0.70 | 0.10 | 83 | 1008.5 |
| 20260504234209 | 47 | 290 | 3.0 | 11.0 | 0.00 | 0.77 | 0.10 | 83 | 1008.3 |
| 20260504233144 | 47 | 242 | 4.0 | 11.0 | 0.00 | 0.81 | 0.10 | 82 | 1007.9 |
| 20260504230949 | 47 | 248 | 3.0 | 10.0 | 0.00 | 0.88 | 0.10 | 82 | 1007.7 |
| 20260504225946 | 47 | 278 | 4.0 | 10.0 | 0.00 | 0.92 | 0.10 | 81 | 1007.4 |
| 20260504224958 | 48 | 283 | 3.0 | 10.0 | 0.00 | 0.94 | 0.10 | 81 | 1007.3 |
| 20260504223957 | 48 | 261 | 4.0 | 11.0 | 0.00 | 0.96 | 0.10 | 80 | 1007.2 |
| 20260504221833 | 49 | 237 | 3.0 | 12.0 | 0.00 | 0.98 | 0.10 | 79 | 1006.8 |
| 20260504220834 | 49 | 225 | 4.0 | 13.0 | 0.00 | 0.98 | 0.10 | 79 | 1006.7 |
| 20260504215820 | 49 | 251 | 4.0 | 13.0 | 0.00 | 0.98 | 0.10 | 78 | 1006.4 |
| 20260504214759 | 50 | 282 | 5.0 | 12.0 | 0.00 | 0.98 | 0.10 | 77 | 1006.5 |
| 20260504213738 | 50 | 270 | 4.0 | 13.0 | 0.00 | 0.98 | 0.10 | 77 | 1006.6 |
| 20260504211540 | 51 | 224 | 4.0 | 14.0 | 0.00 | 0.98 | 0.10 | 78 | 1006.6 |
| 20260504210505 | 50 | 229 | 2.0 | 10.0 | 0.00 | 0.98 | 0.10 | 79 | 1006.7 |
| 20260504204330 | 49 | 225 | 3.0 | 12.0 | 0.00 | 0.98 | 0.10 | 79 | 1007.0 |
| 20260504202240 | 49 | 254 | 3.0 | 10.0 | 0.00 | 0.98 | 0.10 | 78 | 1007.3 |
| 20260504201253 | 49 | 248 | 3.0 | 10.0 | 0.00 | 0.98 | 0.10 | 78 | 1007.1 |
| 20260504195131 | 50 | 247 | 5.0 | 17.0 | 0.00 | 0.98 | 0.10 | 77 | 1007.2 |
| 20260504194057 | 50 | 221 | 4.0 | 16.0 | 0.00 | 0.98 | 0.10 | 77 | 1007.1 |
| 20260504191847 | 51 | 248 | 6.0 | 14.0 | 0.00 | 1.01 | 0.10 | 73 | 1006.8 |
| 20260504190825 | 54 | 259 | 6.0 | 14.0 | 0.00 | 1.03 | 0.10 | 69 | 1006.6 |
| 20260504185809 | 54 | 281 | 6.0 | 13.0 | 0.00 | 1.05 | 0.10 | 69 | 1006.5 |
| 20260504184834 | 54 | 279 | 5.0 | 14.0 | 0.00 | 1.08 | 0.10 | 68 | 1006.3 |
| 20260504182655 | 54 | 264 | 6.0 | 18.0 | 0.00 | 1.14 | 0.10 | 68 | 1006.7 |
| 20260504180512 | 54 | 234 | 5.0 | 13.0 | 0.00 | 1.20 | 0.10 | 69 | 1006.6 |
| 20260504175440 | 54 | 200 | 6.0 | 13.0 | 0.00 | 1.22 | 0.10 | 68 | 1006.6 |
| 20260504174432 | 54 | 224 | 5.0 | 16.0 | 0.00 | 1.24 | 0.10 | 70 | 1006.5 |
| 20260504173417 | 53 | 250 | 7.0 | 16.0 | 0.00 | 1.25 | 0.10 | 69 | 1006.6 |
| 20260504172432 | 53 | 284 | 6.0 | 22.0 | 0.00 | 1.28 | 0.10 | 72 | 1006.7 |
| 20260504171427 | 52 | 234 | 6.0 | 22.0 | 0.00 | 1.30 | 0.10 | 71 | 1006.8 |
| 20260504170415 | 52 | 278 | 7.0 | 19.0 | 0.00 | 1.33 | 0.10 | 71 | 1007.0 |
| 20260504160155 | 52 | 257 | 6.0 | 14.0 | 0.00 | 1.61 | 0.10 | 74 | 1007.4 |
| 20260504150134 | 51 | 261 | 6.0 | 14.0 | 0.00 | 2.01 | 0.10 | 74 | 1007.8 |
| 20260504141048 | 50 | 246 | 5.0 | 14.0 | 0.00 | 2.34 | 0.10 | 76 | 1007.9 |
| 20260504110136 | 45 | 236 | 8.0 | 22.0 | 0.00 | 2.56 | 0.10 | 80 | 1006.4 |
| 20260504081630 | 41 | 283 | 4.0 | 13.0 | 0.00 | 2.60 | 0.10 | 84 | 1003.6 |
| 20260504070127 | 42 | 240 | 5.0 | 16.0 | 0.00 | 2.60 | 0.10 | 86 | 1002.6 |
| 20260504050538 | 42 | 269 | 8.0 | 23.0 | 0.00 | 2.60 | 0.10 | 93 | 1000.8 |
| 20260504045506 | 42 | 265 | 7.0 | 21.0 | 0.00 | 2.60 | 0.10 | 93 | 1000.7 |
| 20260504044513 | 42 | 225 | 7.0 | 17.0 | 0.00 | 2.60 | 0.10 | 93 | 1000.6 |
| 20260504043502 | 42 | 248 | 8.0 | 17.0 | 0.00 | 2.60 | 0.10 | 93 | 1000.5 |
| 20260504042508 | 42 | 271 | 8.0 | 22.0 | 0.00 | 2.60 | 0.10 | 93 | 1000.6 |
| 20260504041441 | 42 | 306 | 8.0 | 22.0 | 0.03 | 2.60 | 0.10 | 93 | 1000.4 |
| 20260504040448 | 42 | 319 | 8.0 | 19.0 | 0.05 | 2.60 | 0.10 | 94 | 1000.4 |
| 20260504035450 | 42 | 345 | 6.0 | 14.0 | 0.06 | 2.59 | 0.09 | 93 | 1000.2 |
| 20260504034430 | 42 | 277 | 6.0 | 16.0 | 0.08 | 2.58 | 0.07 | 93 | 1000.2 |
| 20260504033356 | 42 | 249 | 6.0 | 18.0 | 0.13 | 2.56 | 0.06 | 93 | 1000.1 |
| 20260504031241 | 42 | 10 | 5.0 | 17.0 | 0.11 | 2.52 | 0.02 | 94 | 999.7 |
| 20260504030245 | 42 | 271 | 5.0 | 16.0 | 0.11 | 2.50 | 0.00 | 94 | 999.6 |
| 20260504025214 | 42 | 252 | 5.0 | 16.0 | 0.13 | 2.48 | 2.48 | 94 | 999.4 |
| 20260504024157 | 41 | 327 | 5.0 | 14.0 | 0.15 | 2.46 | 2.46 | 93 | 999.3 |
| 20260504022001 | 41 | 255 | 6.0 | 20.0 | 0.16 | 2.40 | 2.40 | 93 | 999.0 |
| 20260504020959 | 41 | 280 | 6.0 | 20.0 | 0.18 | 2.37 | 2.37 | 93 | 998.9 |
| 20260504015951 | 41 | 13 | 6.0 | 17.0 | 0.19 | 2.34 | 2.34 | 94 | 998.7 |
| 20260504014951 | 41 | 261 | 5.0 | 16.0 | 0.18 | 2.31 | 2.32 | 94 | 998.6 |
| 20260504013928 | 41 | 284 | 6.0 | 19.0 | 0.22 | 2.28 | 2.29 | 94 | 998.4 |
| 20260504012908 | 41 | 329 | 6.0 | 19.0 | 0.25 | 2.25 | 2.25 | 93 | 998.2 |
| 20260504011847 | 41 | 257 | 5.0 | 16.0 | 0.21 | 2.21 | 2.21 | 93 | 998.0 |
| 20260504010845 | 41 | 273 | 5.0 | 19.0 | 0.25 | 2.17 | 2.17 | 93 | 998.0 |
| 20260504005827 | 41 | 300 | 6.0 | 19.0 | 0.26 | 2.12 | 2.13 | 93 | 997.7 |
| 20260504004806 | 41 | 286 | 4.0 | 15.0 | 0.24 | 2.08 | 2.08 | 94 | 997.5 |
| 20260504003820 | 41 | 348 | 4.0 | 11.0 | 0.25 | 2.04 | 2.04 | 93 | 997.4 |